TimeCDT,TemperatureF,Dew PointF,Humidity,Sea Level PressureIn,VisibilityMPH,Wind Direction,Wind SpeedMPH,Gust SpeedMPH,PrecipitationIn,Events,Conditions,WindDirDegrees,DateUTC
12:20 AM,39.2,39.2,100,29.73,0.2,NE,11.5,-,N/A,Fog,Fog,50,2013-05-21 05:20:00
12:53 AM,39.9,39.0,97,29.74,0.2,NNE,11.5,-,N/A,Fog,Fog,30,2013-05-21 05:53:00
1:04 AM,39.2,39.2,100,29.71,0.5,NE,11.5,19.6,N/A,Fog,Fog,40,2013-05-21 06:04:00
1:53 AM,39.9,39.0,97,29.71,0.5,NNE,13.8,-,N/A,Fog,Fog,20,2013-05-21 06:53:00
2:12 AM,39.2,39.2,100,29.69,0.2,NNE,13.8,-,N/A,Fog,Fog,30,2013-05-21 07:12:00
2:53 AM,39.9,39.0,97,29.70,0.2,NNE,13.8,19.6,0.01,Fog,Fog,30,2013-05-21 07:53:00
3:53 AM,39.9,39.0,97,29.68,0.2,NE,12.7,-,N/A,Fog,Fog,40,2013-05-21 08:53:00
4:04 AM,39.2,39.2,100,29.66,0.5,NE,15.0,-,N/A,Fog,Fog,40,2013-05-21 09:04:00
4:53 AM,39.9,39.0,97,29.69,0.5,NNE,15.0,20.7,0.01,Fog-Rain,Light Rain,30,2013-05-21 09:53:00
5:18 AM,39.2,39.2,100,29.68,1.2,NE,11.5,20.7,0.03,Rain,Light Rain,40,2013-05-21 10:18:00
5:53 AM,39.9,39.0,97,29.71,2.0,NNE,11.5,-,0.10,Rain,Light Rain,30,2013-05-21 10:53:00
6:03 AM,39.2,39.2,100,29.68,4.0,NNE,12.7,-,0.02,Rain,Rain,20,2013-05-21 11:03:00
6:53 AM,39.9,39.0,97,29.69,5.0,NE,11.5,-,0.17,Rain,Light Rain,40,2013-05-21 11:53:00
7:53 AM,41.0,39.0,93,29.69,4.0,NE,15.0,-,0.11,Rain,Light Rain,40,2013-05-21 12:53:00
8:29 AM,41.0,39.2,93,29.67,1.8,NNE,15.0,20.7,0.16,Rain,Heavy Rain,30,2013-05-21 13:29:00
8:36 AM,41.0,39.2,93,29.67,1.2,NNE,13.8,20.7,0.25,Rain,Heavy Rain,20,2013-05-21 13:36:00
8:53 AM,41.0,39.0,93,29.70,2.5,NE,13.8,23.0,0.32,Rain,Light Rain,40,2013-05-21 13:53:00
9:00 AM,41.0,39.2,93,29.68,5.0,NNE,16.1,23.0,0.01,Rain,Light Rain,30,2013-05-21 14:00:00
9:53 AM,41.0,39.9,96,29.71,10.0,NE,9.2,19.6,0.04,,Overcast,40,2013-05-21 14:53:00
10:53 AM,42.1,39.9,92,29.71,10.0,NNE,13.8,21.9,N/A,,Overcast,30,2013-05-21 15:53:00
11:49 AM,42.8,42.8,100,29.69,2.5,NNE,13.8,18.4,N/A,,Overcast,30,2013-05-21 16:49:00
11:53 AM,43.0,42.1,97,29.72,2.5,NNE,9.2,-,N/A,,Overcast,20,2013-05-21 16:53:00
12:02 PM,42.8,41.0,93,29.69,4.0,North,15.0,-,N/A,,Overcast,10,2013-05-21 17:02:00
12:18 PM,42.8,41.0,93,29.69,2.0,North,11.5,-,N/A,,Overcast,10,2013-05-21 17:18:00
12:37 PM,44.6,42.8,93,29.70,1.8,North,13.8,-,N/A,,Overcast,10,2013-05-21 17:37:00
12:53 PM,44.1,41.0,89,29.72,2.0,NNE,13.8,-,N/A,,Overcast,20,2013-05-21 17:53:00
1:46 PM,44.6,42.8,93,29.70,3.0,NNE,10.4,-,N/A,,Overcast,20,2013-05-21 18:46:00
1:53 PM,44.1,42.1,93,29.73,3.0,NNE,9.2,-,N/A,,Overcast,20,2013-05-21 18:53:00
2:15 PM,44.6,42.8,93,29.71,2.5,North,10.4,-,N/A,,Overcast,360,2013-05-21 19:15:00
2:24 PM,44.6,42.8,93,29.71,4.0,North,13.8,-,N/A,,Overcast,10,2013-05-21 19:24:00
2:53 PM,46.0,43.0,89,29.73,9.0,NNE,15.0,-,N/A,,Overcast,20,2013-05-21 19:53:00
3:53 PM,45.0,42.1,90,29.74,10.0,NE,11.5,-,N/A,,Overcast,40,2013-05-21 20:53:00
4:53 PM,43.0,41.0,93,29.75,3.0,NNE,16.1,-,N/A,,Overcast,30,2013-05-21 21:53:00
5:01 PM,42.8,41.0,93,29.74,2.0,NNE,12.7,-,N/A,,Overcast,20,2013-05-21 22:01:00
5:25 PM,42.8,39.2,87,29.74,1.8,NNE,13.8,-,N/A,,Overcast,20,2013-05-21 22:25:00
5:53 PM,41.0,39.9,96,29.77,1.0,NNE,13.8,-,N/A,,Overcast,20,2013-05-21 22:53:00
6:53 PM,41.0,39.9,96,29.78,1.2,NNE,12.7,-,N/A,,Overcast,20,2013-05-21 23:53:00
7:49 PM,41.0,39.2,93,29.76,0.8,NNE,17.3,24.2,0.00,,Overcast,30,2013-05-22 00:49:00
7:53 PM,39.9,39.0,97,29.78,0.8,NNE,12.7,24.2,0.01,Rain,Light Rain,30,2013-05-22 00:53:00
8:25 PM,39.2,39.2,100,29.77,0.2,NNE,15.0,-,0.00,Fog,Fog,30,2013-05-22 01:25:00
8:40 PM,39.2,39.2,100,29.78,0.5,NE,12.7,-,0.00,Fog,Fog,40,2013-05-22 01:40:00
8:53 PM,39.9,39.0,97,29.80,0.5,NNE,12.7,-,0.00,Fog,Fog,30,2013-05-22 01:53:00
9:24 PM,39.2,39.2,100,29.79,1.2,NE,10.4,-,N/A,,Overcast,40,2013-05-22 02:24:00
9:53 PM,39.9,39.0,97,29.82,1.2,NE,13.8,-,0.01,,Overcast,40,2013-05-22 02:53:00
10:53 PM,39.9,39.0,97,29.83,1.2,NE,11.5,-,N/A,,Overcast,50,2013-05-22 03:53:00
11:53 PM,39.9,39.0,97,29.83,2.0,NE,16.1,-,0.01,,Overcast,40,2013-05-22 04:53:00